Regional Weather Roundup
Issued by NWS

Home | Current Version | Previous Version | Graphics & Text | Print | Product List | Glossary On
Versions: 1 2 3 4 5 6 7 8 9 10 11 12 13 14 15 16 17 18 19 20 21 22 23 24 25 26 27 28 29 30 31 32 33 34 35 36 37 38 39 40 41 42 43 44 45 46 47 48 49 50
792
ASUS45 KABQ 250501
RWRNM
NEW MEXICO REGIONAL WEATHER ROUNDUP
NATIONAL WEATHER SERVICE ALBUQUERQUE NM
1100 PM MDT FRI MAR 24 2017

NOTE: "FAIR" MEANS FEW OR NO CLOUDS BELOW 12,000 FEET AGL WITH NO
       SIGNIFICANT WEATHER OR OBSTRUCTIONS TO VISION.

      THIS PRODUCT IS RELEASED AS TWO VERSIONS.  ONE VERSION NEAR
      THE TOP OF THE HOUR CONTAINING PRELIMINARY DATA FROM ALBUQUERQUE
      AND OTHER STATIONS.  A FINAL VERSION WITH ADDITIONAL DATA IS
      ISSUED ABOUT 10 MINUTES AFTER THE HOUR.

NMZ501-503-504-510>518-250600-
NORTHWEST PLATEAU/NORTHCENTRAL MOUNTAINS

CITY           SKY/WX    TMP DP  RH WIND       PRES   REMARKS
FARMINGTON     FAIR      46  22  38 W7        30.16R
LOS ALAMOS     FAIR      46  22  37 SW8       30.21R
SANTA FE       FAIR      39  30  70 N5        30.16S
TAOS             N/A     34  23  64 NE7       30.20F WCI  28
ANGEL FIRE     FAIR      27  25  95 N6        30.22S WCI  20

$$
NMZ402-403-502-505>509-250600-
WESTCENTRAL MOUNTAINS/SOUTHWEST MOUNTAINS

CITY           SKY/WX    TMP DP  RH WIND       PRES   REMARKS
GALLUP         FAIR      37  24  59 CALM      30.24R
GRANTS         FAIR      37  21  52 CALM      30.24S
SILVER CITY    FAIR      46  28  49 N14       30.20S

$$
NMZ407-409-411-412-250600-
SOUTHERN DESERTS

CITY           SKY/WX    TMP DP  RH WIND       PRES   REMARKS
DEMING         FAIR      55  27  34 SW10      30.17R
LAS CRUCES     FAIR      58  26  28 W14       30.14R
HOLLOMAN AFB   FAIR      56  20  24 SE8       30.14S
ALAMOGORDO     FAIR      54  27  35 S8        30.12F
T OR C         FAIR      58  21  24 NW13      30.13S

$$
NMZ519>523-250600-
CENTRAL VALLEYS/CENTRAL HIGHLANDS

CITY           SKY/WX    TMP DP  RH WIND       PRES   REMARKS
ALBUQUERQUE    FAIR      56  18  22 N5        30.17R
MORIARTY ARPT  FAIR      42  28  58 E5        30.20S
CLINES CORNERS FAIR      35  25  66 CALM      30.21F
BELEN          FAIR      48  13  24 CALM      30.17R
SOCORRO        FAIR      59  22  24 N6        30.14R

$$
NMZ524>526-539-540-250600-
SOUTHCENTRAL MOUNTAINS

CITY           SKY/WX    TMP DP  RH WIND       PRES   REMARKS
RUIDOSO        NOT AVBL

$$
NMZ527>531-250600-
NORTHEAST HIGHLANDS/NORTHEAST PLAINS

CITY           SKY/WX    TMP DP  RH WIND       PRES   REMARKS
LAS VEGAS      FAIR      31  25  78 SE5       30.18F WCI  26
RATON          FAIR      38  27  64 N18G28    30.13  WCI  28
CLAYTON        FAIR      37  35  92 W3        30.12S

$$
NMZ532>537-250600-
EASTCENTRAL PLAINS

CITY           SKY/WX    TMP DP  RH WIND       PRES   REMARKS
TUCUMCARI      FAIR      44  30  57 CALM      30.13S
CANNON AFB     FAIR      43  32  65 N16G23    30.13S
CLOVIS AIRPORT FAIR      43  28  56 N13       30.14S

$$
NMZ028-029-538-250600-
SOUTHEAST PLAINS

CITY           SKY/WX    TMP DP  RH WIND       PRES   REMARKS
ROSWELL        FAIR      51  28  41 N7          N/A
ARTESIA        FAIR      50  28  43 NW7       30.17R
CARLSBAD       FAIR      56  28  34 N8        30.15R


$$




USA.gov is the U.S. government's official web portal to all federal, state and local government web resources and services.